PST,Max TemperatureF,Mean TemperatureF,Min TemperatureF,Max Dew PointF,MeanDew PointF,Min DewpointF,Max Humidity, Mean Humidity, Min Humidity, Max Sea Level PressureIn, Mean Sea Level PressureIn, Min Sea Level PressureIn, Max VisibilityMiles, Mean VisibilityMiles, Min VisibilityMiles, Max Wind SpeedMPH, Mean Wind SpeedMPH, Max Gust SpeedMPH,PrecipitationIn, CloudCover, Events, WindDirDegrees
2011-12-1,53,43,33,41,36,32,100,80,50,30.71,30.62,30.50,10,10,4,13,6,,0.00,0,,48
2011-12-2,50,42,33,43,39,32,100,87,66,30.52,30.49,30.46,10,9,4,17,5,22,0.00,3,Rain,35
2011-12-3,46,39,32,39,35,32,100,87,62,30.54,30.52,30.50,10,10,7,9,4,,0.00,2,,55
2011-12-4,46,42,37,37,35,34,93,80,66,30.55,30.52,30.49,10,10,10,13,5,,0.00,5,,78
2011-12-5,50,42,33,39,33,30,100,77,50,30.52,30.46,30.41,10,10,10,13,8,,0.00,0,,52
2011-12-6,48,40,32,41,34,30,100,87,62,30.47,30.44,30.41,10,10,10,9,5,,0.00,0,,57
2011-12-7,46,39,32,37,34,32,100,87,71,30.47,30.43,30.38,10,10,10,14,7,,0.00,1,,67
2011-12-8,48,40,32,37,34,32,100,85,62,30.38,30.33,30.27,10,10,10,9,6,,0.00,0,,36
2011-12-9,55,44,32,41,33,30,93,73,47,30.26,30.22,30.19,10,9,4,15,5,21,0.00,0,,86
2011-12-10,44,42,41,41,39,37,100,90,81,30.22,30.18,30.15,10,9,5,6,4,,0.00,8,Rain,111
2011-12-11,46,40,33,39,35,32,100,86,66,30.14,30.12,30.11,10,10,7,17,5,24,0.00,4,Rain,46
2011-12-12,44,36,28,32,29,25,100,78,46,30.18,30.12,30.01,10,10,7,14,6,,0.00,0,,61
2011-12-13,46,39,32,34,29,27,93,71,53,30.11,30.02,29.99,10,10,10,15,9,18,0.00,0,,76
2011-12-14,46,39,32,41,36,30,100,86,71,30.21,30.14,30.06,10,10,7,22,9,29,0.07,6,Rain,125
2011-12-15,48,45,42,46,44,41,100,94,87,30.51,30.33,30.10,10,6,1,10,5,16,0.06,8,Rain,171
2011-12-16,53,45,37,45,41,37,100,89,72,30.52,30.46,30.36,10,9,1,9,5,,0.00,1,,81
2011-12-17,59,49,39,45,40,37,100,77,59,30.34,30.21,30.11,10,8,1,13,7,,0.00,1,,87
2011-12-18,48,44,39,45,41,36,100,88,71,30.44,30.31,30.19,10,6,1,15,3,20,0.02,7,Rain,2
2011-12-19,46,40,33,41,37,34,100,90,76,30.49,30.46,30.40,10,8,4,9,5,,0.00,3,,78
2011-12-20,44,38,32,45,37,32,100,94,81,30.45,30.40,30.36,10,7,2,7,3,,0.00,3,,65
2011-12-21,46,39,32,37,34,32,100,87,61,30.50,30.45,30.42,10,8,1,15,7,20,0.00,2,,77
2011-12-22,50,42,35,32,30,27,87,66,47,30.43,30.37,30.32,10,10,10,23,14,28,0.00,0,,93
2011-12-23,51,42,33,43,38,32,93,79,58,30.60,30.56,30.47,10,8,2,9,5,,0.00,4,Rain,131
2011-12-24,57,46,35,41,37,34,93,74,44,30.57,30.45,30.29,10,9,2,9,3,,0.00,1,,92
2011-12-25,50,44,39,45,41,34,100,81,62,30.45,30.30,30.17,10,6,2,31,13,40,0.11,5,Rain,210
2011-12-26,44,38,33,41,38,32,100,93,81,30.42,30.33,30.27,10,9,4,12,5,17,0.02,4,Rain,128
2011-12-27,51,48,44,50,46,41,100,91,76,30.29,30.15,29.99,10,5,2,38,21,55,0.66,8,Rain,188
2011-12-28,51,50,50,50,50,50,100,100,94,30.09,30.02,29.91,4,2,1,37,28,52,1.27,8,Rain,195
2011-12-29,51,48,46,50,48,46,100,96,87,30.17,29.93,29.74,10,4,1,31,11,43,0.95,7,Rain,170
2011-12-30,50,42,33,50,41,32,100,87,71,30.37,30.03,29.73,7,5,2,18,11,29,0.97,6,Rain,265
2011-12-31,42,38,33,36,34,32,100,83,66,30.40,30.30,30.19,10,10,7,20,9,28,0.00,4,Rain,88